Weather History for Kendall, FL

Change the Weather History Date:

Sunday, December 9, 2012

  Actual Average Record
Temperature  
Mean Temperature 75 °F -  
Max Temperature 84 °F 78 °F 87 °F (1997)
Min Temperature 66 °F 58 °F 46 °F (1990)
Cooling Degree Days 10    
Growing Degree Days 25 (Base 50)    
Moisture  
Dew Point 71 °F    
Average Humidity 92    
Maximum Humidity 100    
Minimum Humidity 66    
Precipitation  
Precipitation 0.01 in - - ()
Sea Level Pressure  
Sea Level Pressure 30.03 in    
Wind  
Wind Speed 1 mph (SE)    
Max Wind Speed 10 mph    
Max Gust Speed -    
Visibility 5 miles    
Events Fog    
Averages and records for this station are not official NWS values.
T = Trace of Precipitation, MM = Missing Value Source: NWS Daily Summary

Daily Weather History Graph

Daily Weather History Graph

Search for Another Location

Airport:

Trip Planner

Search our weather history database for the weather conditions in past years. The results will help you decide how hot, cold, wet, or windy it might be!

Date:

Astronomy

Dec. 09, 2012 Rise Set
Actual Time 6:56 AM EST 5:31 PM EST
Civil Twilight 6:31 AM EST 5:56 PM EST
Nautical Twilight 6:03 AM EST 6:25 PM EST
Astronomical Twilight 5:35 AM EST 6:53 PM EST
Moon 2:46 AM EST (12/9) 2:22 PM EST (12/9)
Length of Visible Light 11h 24m
Length of Day
10h 34m
Waning Crescent, 19% of the Moon is Illuminated
Dec 9
Waning Crescent
Dec 13
New
Dec 20
First Quarter
Dec 28
Full
Jan 4
Last Quarter

Hourly Weather History & Observations

Time (EST) Temp. Heat Index Dew Point Humidity Pressure Visibility Wind Dir Wind Speed Gust Speed Precip Events Conditions
12:53 AM 70.0 °F - 70.0 °F 100% 30.02 in 2.0 mi Calm Calm - 0.01 in   Partly Cloudy
1:01 AM 71.6 °F - 69.8 °F 94% 30.02 in 1.5 mi Calm Calm - N/A   Scattered Clouds
1:07 AM 71.6 °F - 71.6 °F 100% 30.02 in 0.8 mi Calm Calm - N/A   Mostly Cloudy
1:11 AM 69.8 °F - 69.8 °F 100% 30.02 in 1.0 mi Calm Calm - N/A   Scattered Clouds
1:18 AM 69.8 °F - 69.8 °F 100% 30.02 in 0.8 mi Calm Calm - N/A   Mostly Cloudy
1:44 AM 69.8 °F - 69.8 °F 100% 30.02 in 1.2 mi Calm Calm - N/A   Scattered Clouds
1:53 AM 68.0 °F - 68.0 °F 100% 30.02 in 0.8 mi Calm Calm - N/A   Mist
2:35 AM 66.2 °F - 66.2 °F 100% 30.01 in 0.2 mi Calm Calm - N/A Fog Fog
2:53 AM 68.0 °F - 68.0 °F 100% 30.01 in 0.2 mi Calm Calm - N/A Fog Fog
3:06 AM 68.0 °F - 68.0 °F 100% 30.01 in 0.8 mi Calm Calm - N/A   Mist
3:14 AM 68.0 °F - 68.0 °F 100% 30.01 in 1.2 mi Calm Calm - N/A   Overcast
3:32 AM 69.8 °F - 69.8 °F 100% 30.02 in 1.2 mi Calm Calm - N/A   Mostly Cloudy
3:43 AM 69.8 °F - 69.8 °F 100% 30.02 in 3.0 mi Calm Calm - N/A   Mostly Cloudy
3:50 AM 68.0 °F - 68.0 °F 100% 30.02 in 2.0 mi Calm Calm - N/A   Mostly Cloudy
3:53 AM 69.1 °F - 68.0 °F 96% 30.02 in 1.8 mi Calm Calm - N/A   Mostly Cloudy
4:00 AM 69.8 °F - 69.8 °F 100% 30.02 in 2.5 mi Calm Calm - N/A   Mostly Cloudy
4:13 AM 69.8 °F - 69.8 °F 100% 30.02 in 3.0 mi Calm Calm - N/A   Mostly Cloudy
4:22 AM 69.8 °F - 69.8 °F 100% 30.02 in 4.0 mi Calm Calm - N/A   Scattered Clouds
4:42 AM 69.8 °F - 69.8 °F 100% 30.02 in 1.5 mi Calm Calm - N/A   Mostly Cloudy
4:53 AM 69.1 °F - 69.1 °F 100% 30.02 in 1.5 mi Calm Calm - N/A   Mostly Cloudy
4:58 AM 69.8 °F - 69.8 °F 100% 30.02 in 0.8 mi Calm Calm - N/A   Mostly Cloudy
5:10 AM 69.8 °F - 69.8 °F 100% 30.02 in 0.5 mi Calm Calm - N/A Fog Fog
5:53 AM 68.0 °F - 68.0 °F 100% 30.03 in 0.8 mi Calm Calm - N/A   Mist
6:53 AM 68.0 °F - 68.0 °F 100% 30.05 in 0.5 mi Calm Calm - N/A Fog Fog
7:21 AM 69.8 °F - 69.8 °F 100% 30.06 in 10.0 mi Calm Calm - N/A   Clear
7:53 AM 70.0 °F - 69.1 °F 97% 30.07 in 10.0 mi Calm Calm - N/A   Clear
8:53 AM 75.0 °F - 73.9 °F 96% 30.08 in 10.0 mi Calm Calm - N/A   Clear
9:53 AM 80.1 °F 84.5 °F 73.9 °F 81% 30.09 in 10.0 mi SE 4.6 mph - N/A   Scattered Clouds
10:53 AM 81.0 °F 85.8 °F 73.0 °F 77% 30.08 in 10.0 mi Calm Calm - N/A   Mostly Cloudy
11:31 AM 80.6 °F 85.4 °F 73.4 °F 79% 30.08 in 10.0 mi SE 6.9 mph - N/A   Overcast
11:53 AM 82.0 °F 87.4 °F 73.0 °F 74% 30.06 in 10.0 mi South 4.6 mph - N/A   Overcast
12:22 PM 82.4 °F 88.2 °F 73.4 °F 74% 30.05 in 10.0 mi SSE 6.9 mph - N/A   Scattered Clouds
12:53 PM 84.0 °F 89.6 °F 72.0 °F 67% 30.03 in 10.0 mi ESE 5.8 mph - N/A   Partly Cloudy
1:24 PM 84.2 °F 89.6 °F 71.6 °F 66% 30.02 in 10.0 mi SSE 6.9 mph - N/A   Mostly Cloudy
1:43 PM 84.2 °F 90.9 °F 73.4 °F 70% 30.01 in 10.0 mi SE 9.2 mph - N/A   Scattered Clouds
1:53 PM 82.4 °F 87.2 °F 71.6 °F 70% 30.01 in 10.0 mi SSE 6.9 mph - N/A   Partly Cloudy
2:53 PM 84.0 °F 89.6 °F 72.0 °F 67% 30.00 in 10.0 mi ESE 8.1 mph - N/A   Partly Cloudy
3:08 PM 84.2 °F 90.9 °F 73.4 °F 70% 30.00 in 10.0 mi SSE 8.1 mph - N/A   Mostly Cloudy
3:43 PM 82.4 °F 88.2 °F 73.4 °F 74% 30.00 in 10.0 mi ESE 10.4 mph - N/A   Scattered Clouds
3:53 PM 82.9 °F 88.0 °F 72.0 °F 69% 30.00 in 10.0 mi SE 8.1 mph - N/A   Partly Cloudy
4:53 PM 80.1 °F 83.8 °F 72.0 °F 76% 30.01 in 10.0 mi SE 9.2 mph - N/A   Clear
5:53 PM 78.1 °F - 73.0 °F 84% 30.02 in 10.0 mi SE 4.6 mph - N/A   Clear
6:53 PM 75.0 °F - 73.0 °F 94% 30.04 in 10.0 mi ESE 3.5 mph - N/A   Clear
7:53 PM 75.0 °F - 73.0 °F 94% 30.04 in 10.0 mi Calm Calm - N/A   Clear
8:53 PM 73.9 °F - 73.0 °F 97% 30.04 in 10.0 mi Calm Calm - N/A   Clear
9:53 PM 73.9 °F - 73.0 °F 97% 30.05 in 10.0 mi Calm Calm - N/A   Clear
10:44 PM 71.6 °F - 71.6 °F 100% 30.05 in 1.8 mi Calm Calm - N/A   Clear
10:53 PM 72.0 °F - 72.0 °F 100% 30.05 in 1.8 mi Calm Calm - N/A   Clear
11:01 PM 71.6 °F - 69.8 °F 94% 30.05 in 0.8 mi Calm Calm - N/A   Mist
11:12 PM 69.8 °F - 69.8 °F 100% 30.05 in 0.2 mi Calm Calm - N/A Fog Fog
11:21 PM 71.6 °F - 69.8 °F 94% 30.05 in 1.0 mi Calm Calm - N/A   Mist
11:24 PM 71.6 °F - 71.6 °F 100% 30.05 in 3.0 mi Calm Calm - N/A   Mostly Cloudy
11:29 PM 69.8 °F - 69.8 °F 100% 30.04 in 1.8 mi Calm Calm - N/A   Mostly Cloudy
11:44 PM 71.6 °F - 71.6 °F 100% 30.04 in 0.8 mi Calm Calm - N/A   Mist
11:53 PM 72.0 °F - 71.1 °F 97% 30.04 in 0.5 mi Calm Calm - N/A Fog Fog